McHenry, MD

9:03 PM EST on February 09, 2016 (GMT -0500)
Oakland

Weather History for K2G4 - April, 2013

Change the Weather History Date:

Wednesday, April 3, 2013

  Actual Average (KMGW) Record (KMGW)
Temperature  
Mean Temperature 27 °F 48 °F  
Max Temperature 33 °F 59 °F 87 °F (2010)
Min Temperature 21 °F 38 °F 18 °F (1965)
Degree Days  
Heating Degree Days 38 17  
Month to date heating degree days 51  
Since 1 July heating degree days 4652  
Cooling Degree Days 0 0  
Month to date cooling degree days 0  
Year to date cooling degree days 2  
Moisture  
Dew Point 11 °F    
Average Humidity 50    
Maximum Humidity 74    
Minimum Humidity 32    
Precipitation  
Precipitation 0.00 in 0.12 in 0.69 in (2015)
Month to date precipitation 0.36  
Year to date precipitation 9.42  
Sea Level Pressure  
Sea Level Pressure 30.18 in    
Wind  
Wind Speed 9 mph (WNW)    
Max Wind Speed 16 mph    
Max Gust Speed 29 mph    
Visibility 10 miles    
Events      
T = Trace of Precipitation, MM = Missing Value Source: NWS Daily Summary

Daily Weather History Graph

Daily Weather History Graph

Search for Another Location

Airport or City:

Trip Planner

Search our weather history database for the weather conditions in past years. The results will help you decide how hot, cold, wet, or windy it might be!

Date:

Astronomy

Apr. 03, 2013 Rise Set
Actual Time 6:58 AM EDT 7:43 PM EDT
Civil Twilight 6:30 AM EDT 8:10 PM EDT
Nautical Twilight 5:58 AM EDT 8:43 PM EDT
Astronomical Twilight 5:25 AM EDT 9:16 PM EDT
Moon 2:36 AM EDT (4/3) 12:55 PM EDT (4/3)
Length of Visible Light 13h 40m
Length of Day
12h 45m
Last Quarter, 45% of the Moon is Illuminated
Apr 3
Last Quarter
Apr 10
New
Apr 18
First Quarter
Apr 25
Full
May 2
Last Quarter

Hourly Weather History & Observations

Time (EDT) Temp. Windchill Dew Point Humidity Pressure Visibility Wind Dir Wind Speed Gust Speed Precip Events Conditions
12:00 AM 26.6 °F 20.0 °F 12.2 °F 55% 30.09 in 10.0 mi NW 5.8 mph - N/A   Overcast
12:20 AM 26.6 °F 18.2 °F 10.4 °F 51% 30.08 in 10.0 mi NW 8.1 mph - N/A   Overcast
12:40 AM 26.6 °F 19.1 °F 10.4 °F 51% 30.08 in 10.0 mi WNW 6.9 mph - N/A   Overcast
1:00 AM 26.6 °F 20.0 °F 10.4 °F 51% 30.08 in 10.0 mi NW 5.8 mph - N/A   Overcast
1:20 AM 26.6 °F 20.0 °F 10.4 °F 51% 30.08 in 10.0 mi WNW 5.8 mph - N/A   Overcast
1:40 AM 26.6 °F 18.2 °F 10.4 °F 51% 30.08 in 10.0 mi West 8.1 mph - N/A   Mostly Cloudy
2:00 AM 24.8 °F 16.9 °F 10.4 °F 54% 30.08 in 10.0 mi West 6.9 mph - N/A   Clear
2:20 AM 24.8 °F 16.1 °F 10.4 °F 54% 30.08 in 10.0 mi West 8.1 mph - N/A   Clear
5:20 AM 23.0 °F 10.6 °F 12.2 °F 63% 30.08 in 10.0 mi West 13.8 mph 18.4 mph N/A   Clear
5:40 AM 23.0 °F 11.1 °F 12.2 °F 63% 30.08 in 10.0 mi West 12.7 mph 20.7 mph N/A   Clear
6:00 AM 23.0 °F 13.1 °F 12.2 °F 63% 30.09 in 10.0 mi WNW 9.2 mph 18.4 mph N/A   Clear
6:20 AM 23.0 °F 15.8 °F 12.2 °F 63% 30.11 in 10.0 mi West 5.8 mph - N/A   Clear
6:40 AM 21.2 °F 11.7 °F 14.0 °F 74% 30.12 in 10.0 mi West 8.1 mph - N/A   Clear
7:00 AM 21.2 °F 12.6 °F 14.0 °F 74% 30.12 in 10.0 mi West 6.9 mph - N/A   Clear
7:20 AM 21.2 °F 10.9 °F 14.0 °F 74% 30.13 in 10.0 mi West 9.2 mph - N/A   Clear
7:40 AM 21.2 °F 10.9 °F 14.0 °F 74% 30.13 in 10.0 mi West 9.2 mph - N/A   Clear
8:00 AM 23.0 °F 14.7 °F 14.0 °F 68% 30.13 in 10.0 mi West 6.9 mph - N/A   Clear
8:20 AM 23.0 °F 13.1 °F 14.0 °F 68% 30.13 in 10.0 mi WNW 9.2 mph - N/A   Clear
9:00 AM 24.8 °F 16.9 °F 15.8 °F 69% 30.13 in 10.0 mi NW 6.9 mph - N/A   Clear
9:20 AM 26.6 °F 19.1 °F 15.8 °F 64% 30.15 in 10.0 mi NW 6.9 mph - N/A   Clear
9:40 AM 26.6 °F 17.5 °F 15.8 °F 64% 30.15 in 10.0 mi West 9.2 mph - N/A   Clear
10:00 AM 26.6 °F 17.5 °F 15.8 °F 64% 30.17 in 10.0 mi WNW 9.2 mph 17.3 mph N/A   Clear
10:20 AM 28.4 °F 19.1 °F 15.8 °F 59% 30.18 in 10.0 mi WNW 10.4 mph 16.1 mph N/A   Clear
10:40 AM 28.4 °F 18.5 °F 14.0 °F 55% 30.18 in 10.0 mi WNW 11.5 mph 18.4 mph N/A   Clear
11:00 AM 30.2 °F 20.2 °F 14.0 °F 51% 30.19 in 10.0 mi West 12.7 mph 17.3 mph N/A   Scattered Clouds
11:20 AM 30.2 °F 20.2 °F 12.2 °F 47% 30.19 in 10.0 mi West 12.7 mph 18.4 mph N/A   Scattered Clouds
11:40 AM 30.2 °F 21.9 °F 14.0 °F 51% 30.19 in 10.0 mi West 9.2 mph 17.3 mph N/A   Clear
12:00 PM 30.2 °F 18.9 °F 12.2 °F 47% 30.20 in 10.0 mi West 16.1 mph 24.2 mph N/A   Scattered Clouds
12:15 PM 32.0 °F 22.5 °F 12.2 °F 44% 30.19 in 10.0 mi West 12.7 mph 18.4 mph N/A   Scattered Clouds
12:40 PM 32.0 °F 25.6 °F 14.0 °F 48% 30.19 in 10.0 mi WNW 6.9 mph 17.3 mph N/A   Scattered Clouds
1:00 PM 32.0 °F 24.2 °F 14.0 °F 48% 30.18 in 10.0 mi West 9.2 mph - N/A   Scattered Clouds
1:20 PM 32.0 °F 23.0 °F 12.2 °F 44% 30.17 in 10.0 mi WNW 11.5 mph 19.6 mph N/A   Scattered Clouds
1:40 PM 32.0 °F 24.2 °F 12.2 °F 44% 30.16 in 10.0 mi NW 9.2 mph 23.0 mph N/A   Scattered Clouds
2:00 PM 32.0 °F 23.0 °F 10.4 °F 41% 30.17 in 10.0 mi NW 11.5 mph 26.5 mph N/A   Mostly Cloudy
2:20 PM 33.8 °F 25.8 °F 12.2 °F 41% 30.17 in 10.0 mi WNW 10.4 mph 28.8 mph N/A   Scattered Clouds
2:40 PM 33.8 °F 23.9 °F 10.4 °F 38% 30.17 in 10.0 mi West 15.0 mph 27.6 mph N/A   Scattered Clouds
3:00 PM 33.8 °F 23.9 °F 8.6 °F 35% 30.16 in 10.0 mi WNW 15.0 mph 26.5 mph N/A   Scattered Clouds
3:20 PM 32.0 °F 22.1 °F 8.6 °F 38% 30.16 in 10.0 mi WNW 13.8 mph 24.2 mph N/A   Clear
3:40 PM 32.0 °F 22.5 °F 8.6 °F 38% 30.16 in 10.0 mi WNW 12.7 mph 24.2 mph N/A   Clear
4:00 PM 33.8 °F 24.3 °F 6.8 °F 32% 30.17 in 10.0 mi NW 13.8 mph 23.0 mph N/A   Clear
4:20 PM 33.8 °F 24.3 °F 6.8 °F 32% 30.18 in 10.0 mi WNW 13.8 mph 25.3 mph N/A   Clear
5:00 PM 33.8 °F 23.9 °F 8.6 °F 35% 30.20 in 10.0 mi WNW 15.0 mph 26.5 mph N/A   Clear
5:20 PM 32.0 °F 22.1 °F 8.6 °F 38% 30.22 in 10.0 mi WNW 13.8 mph 25.3 mph N/A   Clear
5:40 PM 32.0 °F 21.2 °F 6.8 °F 35% 30.23 in 10.0 mi WNW 16.1 mph 25.3 mph N/A   Clear
6:00 PM 32.0 °F 21.6 °F 6.8 °F 35% 30.23 in 10.0 mi WNW 15.0 mph 23.0 mph N/A   Scattered Clouds
6:20 PM 32.0 °F 24.2 °F 8.6 °F 38% 30.25 in 10.0 mi NW 9.2 mph 18.4 mph N/A   Clear
6:40 PM 32.0 °F 23.6 °F 8.6 °F 38% 30.25 in 10.0 mi NW 10.4 mph 16.1 mph N/A   Clear
7:00 PM 30.2 °F 20.8 °F 10.4 °F 44% 30.26 in 10.0 mi NNW 11.5 mph 19.6 mph N/A   Clear
7:20 PM 30.2 °F 23.4 °F 10.4 °F 44% 30.26 in 10.0 mi NW 6.9 mph 17.3 mph N/A   Clear
7:40 PM 28.4 °F 23.3 °F 12.2 °F 51% 30.26 in 10.0 mi NW 4.6 mph - N/A   Clear
8:00 PM 28.4 °F 21.2 °F 10.4 °F 47% 30.26 in 10.0 mi NNW 6.9 mph - N/A   Clear
8:20 PM 28.4 °F 20.4 °F 8.6 °F 43% 30.26 in 10.0 mi NNW 8.1 mph - N/A   Clear
8:40 PM 26.6 °F 17.5 °F 6.8 °F 43% 30.26 in 10.0 mi NNW 9.2 mph - N/A   Clear
9:00 PM 26.6 °F 22.6 °F 6.8 °F 43% 30.27 in 10.0 mi North 3.5 mph - N/A   Clear
9:20 PM 26.6 °F 18.2 °F 6.8 °F 43% 30.27 in 10.0 mi NNW 8.1 mph - N/A   Clear
10:05 PM 24.8 °F 19.1 °F 5.0 °F 43% 30.26 in 10.0 mi North 4.6 mph - N/A   Clear
10:25 PM 23.0 °F 14.7 °F 6.8 °F 50% 30.26 in 10.0 mi North 6.9 mph - N/A   Clear
10:45 PM 23.0 °F 17.0 °F 5.0 °F 46% 30.27 in 10.0 mi NNW 4.6 mph - N/A   Clear
11:05 PM 23.0 °F 18.4 °F 5.0 °F 46% 30.27 in 10.0 mi North 3.5 mph - N/A   Clear
11:25 PM 23.0 °F - 5.0 °F 46% 30.28 in 10.0 mi Calm Calm - N/A   Clear
11:45 PM 23.0 °F 17.0 °F 6.8 °F 50% 30.27 in 10.0 mi North 4.6 mph - N/A   Clear